User: anonymous
Location: Monroe
(41.9160°N, 83.3980°W)
Time: 06:26:52
(UTC-04:00)
Language:

deb Explorer IX - Orbit

View from above orbital plane
View from above orbital plane
View from above satellite
View from above satellite

Ground track
Ground track

The orbit data is extracted from the following two-line orbital elements,

1 00085U 61004C   14110.45892032  .00010429  00000-0  26508-2 0  9612
2 00085 038.7688 243.9838 0469849 031.3601 331.4283 14.00423392612186
Epoch (UTC): 20 April 2014 11:00:50
Eccentricity: 0.0469849
inclination: 38.7688°
perigee height: 551 km
apogee height: 1234 km
right ascension of ascending node: 243.9838°
argument of perigee: 31.3601°
revolutions per day: 14.00423392
mean anomaly at epoch: 331.4283°
orbit number at epoch: 61218

The dashed part of the orbit path shows where the satellite is in the earth's shadow,  

DLR